Orbital Elements at Epoch 2459200.5 (2020-Dec-17.0) TDB
Reference: JPL 22 (heliocentric ecliptic J2000)
Element | Value | Uncertainty (1-sigma) | Units |
e | .2258006227484156 | 3.7167e-08 | |
a | 2.535242670142269 | 1.2482e-08 | au |
q | 1.962783296405788 | 9.3161e-08 | au |
i | 5.713288400155172 | 5.3014e-06 | deg |
node | 263.7485273122712 | 5.5831e-05 | deg |
peri | 155.1027041651275 | 5.8585e-05 | deg |
M | 125.9398304443179 | 1.7906e-05 | deg |
tp | 2458684.691690717837 (2019-Jul-20.19169072) | 7.3264e-05 | TDB |
period | 1474.442125945841 4.04 | 1.0889e-05 2.981e-08 | d yr |
n | .2441601427855727 | 1.8032e-09 | deg/d |
Q | 3.107702043878748 | 1.5301e-08 | au |
|
| | Orbit Determination Parameters
Additional Information
|